Simultaneous Nadir Overpasses (SNOs) Predictions

Prediction of SNOs between GOES-15 and TERRA Satellite Orbit:

Table of predicted SNOs for the next 14.0 days since TLE Epoch: 6/25/2022
Index Date Time (GOES-15) GOES-15 Lat,Lon TERRA Lat,Lon Distance(km) Time Diff (sec)
1 06/25/2022 07:00:34 0.14,-128.45 -0.20,-130.16 193.28 80
2 06/27/2022 06:45:39 0.15,-128.46 0.45,-127.20 143.65 80
3 06/27/2022 19:09:33 -0.12,-128.49 0.68,-132.36 438.61 80
4 06/29/2022 06:33:23 0.16,-128.46 1.04,-124.24 479.97 80
5 06/29/2022 18:57:17 -0.13,-128.50 0.08,-129.39 102.29 80
6 07/01/2022 18:42:22 -0.14,-128.50 -0.59,-126.44 233.61 80
7 07/02/2022 07:06:24 0.11,-128.46 -0.58,-131.62 359.37 80
8 07/04/2022 06:54:09 0.12,-128.46 0.10,-128.67 23.84 80
9 07/06/2022 06:39:13 0.14,-128.45 0.72,-125.71 311.50 80
10 07/06/2022 19:03:07 -0.10,-128.48 0.40,-130.86 271.48 80
11 07/08/2022 18:48:11 -0.11,-128.46 -0.24,-127.91 63.28 80
